Location: Brusselsch Zeekanaal
(50.8667°N, 4.3667°E)
Time: 03:02:36
(UTC+00:00)

Cosmos 1140 Rocket - Pass Details

Date: 08 November 2025
Orbit: 740 x 761 km, 74.1° (Epoch: 15 December)

Event Time Altitude Azimuth Distance (km) Brightness Sun altitude
Exits shadow 04:16:13 44° 332° (NNW) 1,030 3.9 -23.8°
Maximum altitude 04:17:54 85° 248° (WSW) 753 3.3 -23.6°
Drops below altitude 10° 04:23:00 10° 160° (SSE) 2,247 6.1 -22.8°
Sets 04:25:20 0° 160° (SSE) 3,165 6.9 -22.4°
